THOR ABLESTAR DEB, 4014

Orbit data source: Space-Track

THOR ABLESTAR DEB, 4014 is space debris in LEO originally from a launch on Thu, 29 Jun 1961 UTC launched from the Air Force Eastern Test Range (AFETR). Debris objects in space refer to the collection of defunct objects orbiting the Earth. Examples of debris include non-operational satellites, rocket bodies, and fragments generated from explosions, collisions, or faulty payload assembly.

Loading next visibility...
Identifier
4014, 1961-015JM
Orbit
LEO
Country
Flag of USUS
Related business
Manufacturer
Unknown
Mission
Spacecraft
Bus & Motor
Unknown
Mass
Unknown
Launch date (UTC)
1961-06-29 (65 years ago)
Launch vehicle
Unknown
Launch site
Air Force Eastern Test Range (AFETR)
Object type
Payload
Rocket body
Debris
Shape & HBR
Unknown shape, 0.1 m
Radar Cross Section
Small (<0.1 m²)

Expand to show TLE details & history
Last TLE update: 3 days ago

TLE from 3 days ago
0 THOR ABLESTAR DEB
1 04014U 61015JM  26070.98934122  .00000923  00000-0  27015-2 0  9996
2 04014  67.6271  40.4324 0814681  48.9426  19.0049 12.30148082902416
Epoch: 2026-03-11T23:44Z
TLE epoch observation values (Epoch: 2026-03-11T23:44:39.081Z)
Latitude
61.27275°
Longitude
-77.04416°
Altitude
953.98 km
Speed
7.657 km/s
True Right ascension
05h 55m 03s
True Declination
61° 07' 53"
Sunlit
Object was in daylight at epoch
Visualization orbit readout
Latitude
Unknown
Longitude
Unknown
Altitude
Unknown
Speed
Unknown
Apparent Right ascension
Unknown
Apparent Declination
Unknown
Sunlit
N/A
Visualization observer readout
Local Sidereal Time
00:39:56
Azimuth
Unknown
Elevation
Unknown
Doppler factor
Unknown
Orbital elements
Apogee altitude
2,192.715 km
Perigee altitude
901.413 km
Semi-major axis
7,925.201 km
Eccentricity
0.08147
Inclination
67.6271°
RAAN
40.4324°
Arg. of periapsis
48.9426°
True anomaly
22.3654°
Mean anomaly
19.0049°
Eccentric anomaly
20.65112°
Mean motion
3.07629 °/min
Orbital period
117.02 mins
BSTAR
0.0027015
Loading maneuver chart data...
Computing Atmospheric mass density...

Documentation

Showing up to 5 results
|